Home   Weather   New City   Past weeks

Flag for USA Past Weather in New City, New York, USA — Yesterday and Last 2 Weeks

Now
39 °F

Fog.


Feels Like: 33 °F
Forecast: 36 / 41 °F
Wind: 8 mph from North

Location: Westchester County Airport

Current Time: Jan 18, 2017 at 3:25:32 pm

Latest Report: Jan 18, 2017 at 2:56 pm


Visibility: 5 mi

Pressure: 29.95 "Hg

Humidity: 89%

Dew Point: 36 °F

Location of New CityLocation

Past Weather in New City — Graph

°F

New City Temperature Yesterday

Maximum temperature yesterday: 38 °F (at 12:56 am)
Minimum temperature yesterday: 36 °F (at 3:56 am)
Average temperature yesterday: 36 °F

High & Low Weather Summary for the Past Weeks

 TemperatureHumidityPressure
High63 °F (Jan 12, 1:56 pm)97% (Jan 3, 11:56 pm)30.75 "Hg (Jan 3, 11:56 pm)
Low7 °F (Jan 9, 6:56 am)28% (Jan 4, 7:56 pm)29.43 "Hg (Jan 4, 2:56 am)
Average33 °F67%30.20 "Hg
* Reported Jan 3 1:56 pm — Jan 18 1:56 pm, New City, Weather by CustomWeather, © 2017

Note: Actual official high and low records may vary slightly from our data, if they occured in-between our weather recording intervals... More about our weather records

Advertising

New City Weather History for the Previous 24 Hours

Scroll right to see more
 ConditionsComfort  
Time TempWeatherWind HumidityBarometerVisibility
1:56 pm
Wed, Jan 18
39 °FFog.10 mph89%29.94 "Hg3 mi
12:56 pm39 °FFog.6 mph89%29.92 "Hg3 mi
11:56 am40 °FFog.6 mph89%29.91 "Hg3 mi
10:56 am39 °FFog.8 mph89%29.92 "Hg3 mi
9:56 am39 °FDrizzle. Fog.5 mph89%29.94 "Hg2 mi
8:56 am38 °FDrizzle. Fog.6 mph93%29.93 "Hg1 mi
7:56 am38 °FDrizzle. Fog.3 mph97%29.92 "Hg1 mi
7:20 am39 °FDrizzle. Fog.6 mph93%29.90 "Hg1 mi
6:56 am39 °FDrizzle. Fog.3 mph89%29.91 "Hg6 mi
5:56 am39 °FMostly cloudy.9 mph93%29.90 "Hg10 mi
4:56 am39 °FFog.9 mph93%29.87 "Hg10 mi
3:56 am38 °FLight rain. Fog.6 mph97%29.90 "Hg5 mi
2:56 am38 °FLight rain. Fog.8 mph93%29.90 "Hg3 mi
1:56 am37 °FFog.12 mph93%29.90 "Hg6 mi
12:56 am37 °FFog.12 mph93%29.92 "Hg6 mi
11:56 pm
Tue, Jan 17
36 °FLight rain. Fog.6 mph97%29.98 "Hg2 mi
10:56 pm36 °FLight rain. Fog.10 mph92%29.98 "Hg1 mi
9:56 pm36 °FLight rain. Fog.10 mph92%30.03 "Hg2 mi
8:56 pm36 °FRain. Fog.8 mph92%30.04 "Hg2 mi
7:56 pm36 °FLight rain. Fog.10 mph92%30.04 "Hg2 mi
6:56 pm36 °FLight rain. Fog.9 mph92%30.08 "Hg2 mi
6:29 pm36 °FLight rain. Fog.8 mph92%30.06 "Hg2 mi
5:56 pm36 °FLight rain. Fog.7 mph89%30.10 "Hg2 mi
5:10 pm36 °FFog.7 mph89%30.08 "Hg1 mi
4:56 pm36 °FFog.7 mph89%30.10 "Hg3 mi
3:56 pm36 °FLight rain. Fog.9 mph89%30.10 "Hg1 mi
3:27 pm36 °FLight rain. Fog.7 mph89%30.09 "Hg1 mi
Weather by CustomWeather, © 2017

See weather overviewHow to use our weather pages